Weather History for KARR - March, 2014

Change the Weather History Date:

Thursday, March 20, 2014

  Actual Average Record
Temperature  
Mean Temperature 38 °F 39 °F  
Max Temperature 45 °F 49 °F 83 °F (2012)
Min Temperature 30 °F 28 °F 12 °F (2013)
Degree Days  
Heating Degree Days 27 26  
Month to date heating degree days 758 607  
Since 1 July heating degree days 6334 5745  
Cooling Degree Days 0 0  
Month to date cooling degree days 0 0  
Year to date cooling degree days 0 0  
Moisture  
Dew Point 29 °F    
Average Humidity 71    
Maximum Humidity 92    
Minimum Humidity 49    
Precipitation  
Precipitation 0.03 in 0.07 in 0.47 in (2011)
Month to date precipitation 0.43 1.38  
Year to date precipitation 2.28 4.47  
Sea Level Pressure  
Sea Level Pressure 30.04 in    
Wind  
Wind Speed 5 mph (West)    
Max Wind Speed 13 mph    
Max Gust Speed 18 mph    
Visibility 6 miles    
Events Snow    
T = Trace of Precipitation, MM = Missing Value Source: NWS Daily Summary

Daily Weather History Graph

Daily Weather History Graph

Search for Another Location

Airport or City:

Trip Planner

Search our weather history database for the weather conditions in past years. The results will help you decide how hot, cold, wet, or windy it might be!

Date:

Astronomy

Mar. 20, 2014 Rise Set
Actual Time 6:57 AM CDT 7:06 PM CDT
Civil Twilight 6:29 AM CDT 7:33 PM CDT
Nautical Twilight 5:57 AM CDT 8:06 PM CDT
Astronomical Twilight 5:23 AM CDT 8:39 PM CDT
Moon 11:29 PM CDT (3/20) 8:59 AM CDT (3/20)
Length of Visible Light 13h 04m
Length of Day
12h 08m
Waning Gibbous, 84% of the Moon is Illuminated
Mar 20
Waning Gibbous
Mar 23
Last Quarter
Mar 30
New
Apr 7
First Quarter
Apr 15
Full

Hourly Weather History & Observations

Time (CDT) Temp. Windchill Dew Point Humidity Pressure Visibility Wind Dir Wind Speed Gust Speed Precip Events Conditions
12:52 AM 34.0 °F 26.0 °F 28.0 °F 79% 30.03 in 9.0 mi West 10.4 mph - N/A   Overcast
1:52 AM 33.1 °F 25.5 °F 27.0 °F 78% 30.03 in 9.0 mi West 9.2 mph - N/A   Overcast
2:52 AM 30.9 °F 23.5 °F 26.1 °F 82% 30.03 in 9.0 mi WSW 8.1 mph - N/A   Clear
3:52 AM 30.0 °F 23.2 °F 27.0 °F 88% 30.02 in 7.0 mi SW 6.9 mph - N/A   Clear
4:52 AM 30.9 °F 24.3 °F 27.0 °F 85% 30.03 in 7.0 mi WSW 6.9 mph - N/A   Mostly Cloudy
5:52 AM 32.0 °F 24.2 °F 28.0 °F 85% 30.06 in 3.0 mi WSW 9.2 mph - 0.00 in Snow Light Snow
6:14 AM 32.0 °F 26.4 °F 28.9 °F 88% 30.04 in 1.8 mi West 5.8 mph - 0.00 in Snow Light Snow
6:25 AM 32.0 °F 25.6 °F 28.9 °F 88% 30.04 in 3.0 mi West 6.9 mph - 0.00 in Snow Light Snow
6:42 AM 32.0 °F 25.6 °F 28.9 °F 88% 30.05 in 2.5 mi WSW 6.9 mph - 0.00 in Snow Light Snow
6:52 AM 32.0 °F 25.6 °F 28.9 °F 88% 30.07 in 1.2 mi West 6.9 mph - 0.00 in Snow Light Snow
7:13 AM 32.0 °F 26.4 °F 30.0 °F 92% 30.05 in 0.8 mi West 5.8 mph - 0.00 in Snow Light Snow
7:38 AM 30.9 °F 25.2 °F 30.0 °F 96% 30.05 in 1.5 mi West 5.8 mph - 0.00 in Snow Light Snow
7:52 AM 32.0 °F 28.7 °F 30.0 °F 92% 30.07 in 1.0 mi West 3.5 mph - 0.00 in Snow Light Snow
8:09 AM 32.0 °F - 30.0 °F 92% 30.05 in 2.0 mi Calm Calm - 0.00 in Snow Light Snow
8:16 AM 32.0 °F - 28.9 °F 88% 30.05 in 3.0 mi Calm Calm - 0.00 in   Overcast
8:25 AM 32.0 °F - 30.0 °F 92% 30.05 in 3.0 mi Calm Calm - 0.01 in   Overcast
8:52 AM 33.1 °F - 30.0 °F 89% 30.06 in 3.0 mi Calm Calm - 0.03 in   Overcast
9:52 AM 34.0 °F - 30.0 °F 85% 30.08 in 4.0 mi Calm Calm - N/A   Overcast
10:52 AM 35.1 °F 32.2 °F 30.9 °F 85% 30.08 in 4.0 mi Variable 3.5 mph - N/A   Overcast
11:52 AM 39.0 °F 33.4 °F 32.0 °F 76% 30.07 in 7.0 mi NW 8.1 mph - N/A   Clear
12:32 PM 41.0 °F 34.7 °F 34.0 °F 76% 30.04 in 8.0 mi West 10.4 mph - N/A   Mostly Cloudy
12:52 PM 39.9 °F 33.4 °F 32.0 °F 73% 30.06 in 8.0 mi WNW 10.4 mph - N/A   Mostly Cloudy
1:52 PM 42.1 °F 37.7 °F 30.9 °F 65% 30.04 in 9.0 mi West 6.9 mph - N/A   Mostly Cloudy
2:41 PM 44.1 °F 39.0 °F 30.0 °F 58% 30.01 in 9.0 mi NW 9.2 mph - N/A   Scattered Clouds
2:52 PM 44.1 °F 39.5 °F 30.9 °F 60% 30.03 in 9.0 mi West 8.1 mph - N/A   Scattered Clouds
3:52 PM 45.0 °F 40.6 °F 30.0 °F 56% 30.02 in 9.0 mi WNW 8.1 mph - N/A   Partly Cloudy
4:52 PM 45.0 °F 41.2 °F 26.1 °F 48% 30.01 in 10.0 mi NW 6.9 mph - N/A   Clear
5:52 PM 44.1 °F 41.5 °F 27.0 °F 51% 30.02 in 10.0 mi West 4.6 mph - N/A   Clear
6:52 PM 41.0 °F 39.0 °F 30.9 °F 67% 30.02 in 10.0 mi WNW 3.5 mph - N/A   Clear
7:52 PM 37.0 °F - 30.0 °F 76% 30.03 in 10.0 mi Calm Calm - N/A   Clear
8:52 PM 35.1 °F - 28.0 °F 76% 30.05 in 10.0 mi Calm Calm - N/A   Clear
9:52 PM 30.9 °F 27.5 °F 28.0 °F 89% 30.03 in 10.0 mi NE 3.5 mph - N/A   Clear
10:52 PM 30.9 °F - 26.1 °F 82% 30.04 in 10.0 mi Calm Calm - N/A   Scattered Clouds
11:52 PM 34.0 °F 28.0 °F 27.0 °F 75% 30.02 in 8.0 mi East 6.9 mph - N/A   Overcast